El Centro, CA

2:13 PM PDT on May 25, 2018 (GMT -0700)
El Centro Naval Air Facility

Weather History for KNJK - March, 2014

Change the Weather History Date:

Monday, March 10, 2014

  Actual Average Record
Temperature  
Mean Temperature 68 °F -  
Max Temperature 87 °F 75 °F 91 °F (1997)
Min Temperature 51 °F 52 °F 41 °F (2009)
Cooling Degree Days 4    
Growing Degree Days 18 (Base 50)    
Moisture  
Dew Point 24 °F    
Average Humidity 20    
Maximum Humidity 35    
Minimum Humidity 10    
Precipitation  
Precipitation 0.00 in - - ()
Sea Level Pressure  
Sea Level Pressure 30.02 in    
Wind  
Wind Speed 6 mph (SW)    
Max Wind Speed 17 mph    
Max Gust Speed -    
Visibility 10 miles    
Events      
Averages and records for this station are not official NWS values.
T = Trace of Precipitation, MM = Missing Value Source: NWS Daily Summary

Daily Weather History Graph

Daily Weather History Graph

Search for Another Location

Airport or City:

Astronomy

Mar. 10, 2014 Rise Set
Actual Time 6:59 AM PDT 6:47 PM PDT
Civil Twilight 6:34 AM PDT 7:11 PM PDT
Nautical Twilight 6:06 AM PDT 7:40 PM PDT
Astronomical Twilight 5:37 AM PDT 8:08 PM PDT
Moon 1:46 PM PDT (3/10) 3:01 AM PDT (3/10)
Length of Visible Light 12h 36m
Length of Day
11h 47m
Waxing Gibbous, 71% of the Moon is Illuminated
Mar 10
Waxing Gibbous
Mar 16
Full
Mar 23
Last Quarter
Mar 30
New
Apr 7
First Quarter

Hourly Weather History & Observations

Time (PDT) Temp. Dew Point Humidity Pressure Visibility Wind Dir Wind Speed Gust Speed Precip Events Conditions
12:56 AM 59.0 °F 19.9 °F 22% 30.09 in 10.0 mi WSW 4.6 mph - N/A   Clear
1:56 AM 57.0 °F 21.0 °F 25% 30.08 in 10.0 mi WSW 5.8 mph - N/A   Clear
2:56 AM 55.9 °F 21.9 °F 27% 30.07 in 10.0 mi SW 4.6 mph - N/A   Clear
3:56 AM 53.1 °F 25.0 °F 34% 30.06 in 10.0 mi West 3.5 mph - N/A   Clear
4:56 AM 55.0 °F 18.0 °F 23% 30.06 in 10.0 mi West 8.1 mph - N/A   Clear
5:56 AM 51.1 °F 24.1 °F 35% 30.07 in 10.0 mi West 6.9 mph - N/A   Partly Cloudy
6:56 AM 51.1 °F 21.9 °F 32% 30.07 in 10.0 mi SW 4.6 mph - N/A   Partly Cloudy
7:56 AM 55.0 °F 21.9 °F 28% 30.09 in 10.0 mi WSW 9.2 mph - N/A   Partly Cloudy
8:56 AM 64.0 °F 26.1 °F 24% 30.10 in 10.0 mi West 5.8 mph - N/A   Partly Cloudy
9:56 AM 73.0 °F 21.9 °F 15% 30.10 in 10.0 mi WNW 4.6 mph - N/A   Partly Cloudy
10:56 AM 80.1 °F 23.0 °F 12% 30.10 in 10.0 mi NE 3.5 mph - N/A   Partly Cloudy
11:56 AM 81.0 °F 28.9 °F 15% 30.06 in 10.0 mi East 8.1 mph - N/A   Clear
12:56 PM 82.9 °F 23.0 °F 11% 30.04 in 10.0 mi Variable 3.5 mph - N/A   Clear
1:56 PM 84.9 °F 25.0 °F 11% 30.00 in 10.0 mi ESE 5.8 mph - N/A   Clear
2:56 PM 86.0 °F 21.9 °F 10% 29.97 in 10.0 mi SSE 6.9 mph - N/A   Partly Cloudy
3:56 PM 86.0 °F 23.0 °F 10% 29.94 in 10.0 mi ESE 8.1 mph - N/A   Partly Cloudy
4:56 PM 86.0 °F 21.9 °F 10% 29.92 in 10.0 mi SE 6.9 mph - N/A   Partly Cloudy
5:56 PM 84.9 °F 30.0 °F 14% 29.92 in 10.0 mi SE 5.8 mph - N/A   Partly Cloudy
6:56 PM 80.1 °F 28.0 °F 15% 29.92 in 10.0 mi SW 6.9 mph - N/A   Partly Cloudy
7:56 PM 77.0 °F 26.1 °F 15% 29.94 in 10.0 mi SW 17.3 mph - N/A   Partly Cloudy
8:56 PM 73.0 °F 25.0 °F 17% 29.95 in 10.0 mi WSW 12.7 mph - N/A   Partly Cloudy
9:56 PM 70.0 °F 24.1 °F 18% 29.95 in 10.0 mi WSW 11.5 mph - N/A   Partly Cloudy
10:56 PM 66.9 °F 24.1 °F 20% 29.95 in 10.0 mi SW 10.4 mph - N/A   Partly Cloudy
11:56 PM 63.0 °F 26.1 °F 25% 29.95 in 10.0 mi WSW 6.9 mph - N/A   Clear